NOAA 16 DEB, 41084

Orbit data source: Space-Track

NOAA 16 DEB, 41084 is space debris in SSO originally from a launch on Thu, 21 Sep 2000 UTC launched from the Air Force Western Test Range (AFWTR). Debris objects in space refer to the collection of defunct objects orbiting the Earth. Examples of debris include non-operational satellites, rocket bodies, and fragments generated from explosions, collisions, or faulty payload assembly.

Loading next visibility...
NOAA 16 DEB details
Identifier
41084, 2000-055AT
Orbit
SSO
Last TLE update15 hours ago
Origin
Flag of USNOAA (US)
ManufacturerUnknown
MissionSpacecraft
Bus & MotorUnknown
MassUnknown
Launch date (UTC)
2000-09-21 (24 years ago)
Launch vehicleUnknown
Launch site
Air Force Western Test Range (AFWTR)
Object type
Payload
Rocket body
Debris
Shape & HBRUnknown
Radar Cross SectionSmall (<0.1 m²)

Expand to show TLE details & history

TLE from 15 hours ago
0 NOAA 16 DEB
1 41084U 00055AT  24361.16700453  .00003565  00000-0  16467-2 0  9994
2 41084  98.7208  83.0958 0015441 340.5469  19.5117 14.21487332469662
Epoch: 2024-12-26T04:00Z
Definitive object data (Epoch: 2024-12-26T04:00:29.191Z)
Latitude-0.00004°
Longitude-72.17611°
Altitude812.766 km
Speed7.452 km/s
True Right ascension05h 32m 22s
True Declination0° 00' 00"
Sunlit
Object was in full shadow at TLE epoch
Visualization TLE readout
Latitude-75.85069°
Longitude71.18285°
Altitude845.78 km
Speed7.43 km/s
Apparent Right ascension07h 22m 46s
Apparent Declination-70° 44' 25"
Sunlit
Object is in daylight
Visualization observer readout
Local Sidereal Time18:06:46
Azimuth191.583° SSW
Elevation-57.668°
Doppler factor1
Orbital elements
Apogee altitude828.595 km
Perigee altitude806.374 km
Semi-major axis7,195.621 km
Eccentricity0.0015441
Inclination98.7208°
RAAN83.0958°
Arg. of periapsis340.5469°
True anomaly19.57091°
Mean anomaly19.5117°
Eccentric anomaly19.54129°
Mean motion3.55583 °/min
BSTAR0.0016467
Orbital period101.24 mins
Loading maneuver chart data...
Loading historical data...
Loading historical data...
Loading historical data...
Loading historical data...
Loading historical data...
Loading historical data...
Loading historical data...

NOAA 16 DEB Visibility forecast

Observer location: undefined°, undefined

Span
Click to sort rows by Start time (UTC) header in descending order
Start Az.
Max El. time (UTC)
Max El. Az.
Max El.
End time (UTC)
End Az.
7 mins2024-12-26 19:47:13.754Z340.615° N2024-12-26 19:50:13.754Z303.287° NW20.803°2024-12-26 19:54:13.754Z250.273° W
9 mins2024-12-27 05:28:13.754Z155.995° SSE2024-12-27 05:32:13.754Z87.357° E43.664°2024-12-27 05:37:13.754Z351.017° N
7 mins2024-12-27 17:47:13.754Z48.815° ENE2024-12-27 17:50:13.754Z98.114° ESE26.963°2024-12-27 17:54:13.754Z153.628° SSE
|